sat.trackr.live / text

‹ back to catalog

STARLINK-31988

NORAD 60601 · 2024-150U

PAYLOAD ACTIVE UNKNOWN

§ Identity

Operator
Country
US
Launch date
2024-08-20
Launch site
AFETR
Launch vehicle
Mass (kg)
RCS (m²)

Purposes: comms

External: N2YO · Heavens-Above · Gunter

§ Orbital elements

Epoch: 2026-09-21T20:20:31.980768Z

Period
93.85 min
Inclination
53.1598°
Eccentricity
0.0000988
Mean motion
15.34390282 rev/d
Perigee alt
462.1 km
Apogee alt
463.4 km
Semi-major
6,840.9 km
B*
2.2679e-5
RAAN
111.6638°
Arg perigee
83.6868°
Mean anomaly
276.4247°
Rev number
11,805

§ Raw data

STARLINK-319881 60601U 24150U   26264.84759237  .00000390  00000+0  22679-4 0  99912 60601  53.1598 111.6638 0000988  83.6868 276.4247 15.34390282118050

JSON: /api/v1/satellites/60601 · /tle

For live sub-satellite position, see the globe view (requires WebGL).

§ Visibility from observer

Set your observer location to see the next 7 days of passes ≥ 10°. The values pass through the URL so the page stays shareable.

No JS? Fill the form by hand. The geolocation button needs JavaScript.